La Grange, TX

10:28 PM CST on February 19, 2018 (GMT -0600)
La Grange

Weather History for K3T5 - September, 2013

Change the Weather History Date:

Monday, September 16, 2013

  Actual Average (KAUS) Record (KAUS)
Temperature  
Mean Temperature 86 °F -  
Max Temperature 96 °F 88 °F 99 °F (1997)
Min Temperature 77 °F 66 °F 54 °F (1999)
Cooling Degree Days 22    
Growing Degree Days 36 (Base 50)    
Moisture  
Dew Point 76 °F    
Average Humidity 79    
Maximum Humidity 92    
Minimum Humidity 45    
Precipitation  
Precipitation 0.20 in - - ()
Sea Level Pressure  
Sea Level Pressure 29.99 in    
Wind  
Wind Speed 3 mph (East)    
Max Wind Speed 12 mph    
Max Gust Speed 29 mph    
Visibility 10 miles    
Events Rain , Thunderstorm    
Averages and records for this station are not official NWS values.
T = Trace of Precipitation, MM = Missing Value Source: NWS Daily Summary

Daily Weather History Graph

Daily Weather History Graph

Search for Another Location

Airport or City:

Trip Planner

Search our weather history database for the weather conditions in past years. The results will help you decide how hot, cold, wet, or windy it might be!

Date:

Astronomy

Sep. 16, 2013 Rise Set
Actual Time 7:13 AM CDT 7:31 PM CDT
Civil Twilight 6:49 AM CDT 7:55 PM CDT
Nautical Twilight 6:21 AM CDT 8:23 PM CDT
Astronomical Twilight 5:52 AM CDT 8:51 PM CDT
Moon 5:33 PM CDT (9/16) 4:11 AM CDT (9/16)
Length of Visible Light 13h 06m
Length of Day
12h 18m
Waxing Gibbous, 90% of the Moon is Illuminated
Sep 16
Waxing Gibbous
Sep 19
Full
Sep 26
Last Quarter
Oct 4
New
Oct 11
First Quarter

Hourly Weather History & Observations

Time (CDT) Temp. Heat Index Dew Point Humidity Pressure Visibility Wind Dir Wind Speed Gust Speed Precip Events Conditions
12:15 AM 82.8 °F 91.6 °F 77.0 °F 83% 29.99 in 10.0 mi ESE 3.5 mph - N/A   Clear
12:35 AM 81.7 °F 89.0 °F 76.5 °F 84% 29.99 in 10.0 mi East 3.5 mph - N/A   Clear
12:55 AM 81.5 °F 88.7 °F 76.6 °F 85% 29.98 in 10.0 mi Calm Calm - N/A   Clear
1:15 AM 81.0 °F 87.7 °F 76.6 °F 87% 29.98 in 10.0 mi Calm Calm - N/A   Clear
1:35 AM 80.6 °F 86.8 °F 76.5 °F 87% 29.98 in 10.0 mi Calm Calm - N/A   Clear
1:55 AM 80.2 °F 86.0 °F 76.3 °F 88% 29.98 in 10.0 mi Calm Calm - N/A   Clear
2:15 AM 79.7 °F - 76.1 °F 89% 29.98 in 10.0 mi Calm Calm - N/A   Clear
2:35 AM 79.7 °F - 76.3 °F 89% 29.98 in 10.0 mi Calm Calm - N/A   Clear
2:55 AM 78.8 °F - 76.1 °F 91% 29.98 in 10.0 mi Calm Calm - N/A   Clear
3:15 AM 79.0 °F - 76.1 °F 91% 29.98 in 10.0 mi Calm Calm - N/A   Clear
3:35 AM 78.8 °F - 76.1 °F 91% 29.98 in 10.0 mi Calm Calm - N/A   Clear
3:55 AM 78.8 °F - 76.1 °F 91% 29.97 in 10.0 mi Calm Calm - N/A   Clear
4:15 AM 78.8 °F - 76.1 °F 91% 29.97 in 10.0 mi Calm Calm - N/A   Clear
4:35 AM 78.8 °F - 76.1 °F 91% 29.97 in 10.0 mi Calm Calm - N/A   Clear
4:55 AM 78.8 °F - 76.1 °F 91% 29.98 in 10.0 mi Calm Calm - N/A   Scattered Clouds
5:15 AM 77.9 °F - 75.4 °F 92% 29.98 in 10.0 mi Calm Calm - N/A   Scattered Clouds
5:35 AM 77.9 °F - 75.2 °F 91% 29.98 in 10.0 mi NNE 3.5 mph - N/A   Clear
5:55 AM 77.5 °F - 75.2 °F 92% 29.97 in 10.0 mi NNE 3.5 mph - N/A   Clear
6:15 AM 77.7 °F - 75.2 °F 92% 29.98 in 10.0 mi Calm Calm - N/A   Clear
6:35 AM 77.4 °F - 75.0 °F 92% 29.98 in 10.0 mi North 3.5 mph - N/A   Clear
6:55 AM 77.0 °F - 74.7 °F 92% 29.99 in 10.0 mi NNE 3.5 mph - N/A   Clear
7:15 AM 77.2 °F - 74.7 °F 92% 29.99 in 10.0 mi NE 3.5 mph - N/A   Clear
7:35 AM 77.4 °F - 74.8 °F 92% 30.00 in 7.0 mi NNE 3.5 mph - N/A   Clear
7:55 AM 77.5 °F - 74.8 °F 91% 30.01 in 7.0 mi NNE 4.6 mph - N/A   Clear
8:15 AM 77.9 °F - 75.2 °F 91% 30.01 in 7.0 mi NE 4.6 mph - N/A   Clear
8:35 AM 78.8 °F - 75.6 °F 90% 30.01 in 7.0 mi NE 4.6 mph - N/A   Clear
8:55 AM 80.1 °F 85.5 °F 76.1 °F 88% 30.02 in 7.0 mi NE 4.6 mph - N/A   Clear
9:15 AM 81.5 °F 89.0 °F 76.8 °F 86% 30.02 in 10.0 mi NE 3.5 mph - N/A   Clear
9:35 AM 82.6 °F 91.1 °F 77.0 °F 83% 30.03 in 10.0 mi ENE 5.8 mph - N/A   Scattered Clouds
9:55 AM 83.5 °F 92.9 °F 77.2 °F 81% 30.03 in 10.0 mi ENE 6.9 mph - N/A   Scattered Clouds
10:15 AM 84.9 °F 95.7 °F 77.4 °F 78% 30.03 in 10.0 mi East 6.9 mph - N/A   Mostly Cloudy
10:35 AM 86.4 °F 97.8 °F 77.0 °F 74% 30.03 in 10.0 mi East 10.4 mph - N/A   Mostly Cloudy
10:55 AM 87.8 °F 99.7 °F 76.8 °F 70% 30.03 in 10.0 mi East 8.1 mph - N/A   Scattered Clouds
11:15 AM 88.2 °F 99.5 °F 76.3 °F 68% 30.03 in 10.0 mi East 5.8 mph 9.2 mph N/A   Mostly Cloudy
11:35 AM 89.4 °F 100.5 °F 75.9 °F 64% 30.03 in 7.0 mi East 8.1 mph - N/A   Scattered Clouds
11:55 AM 89.2 °F 99.5 °F 75.2 °F 63% 30.03 in 7.0 mi East 8.1 mph - N/A   Scattered Clouds
12:15 PM 91.0 °F 102.2 °F 75.4 °F 60% 30.03 in 10.0 mi East 5.8 mph - N/A   Scattered Clouds
12:35 PM 92.5 °F 101.3 °F 73.2 °F 53% 30.02 in 10.0 mi SSE 8.1 mph - N/A   Scattered Clouds
12:55 PM 92.5 °F 101.9 °F 73.6 °F 54% 30.01 in 10.0 mi ENE 8.1 mph - N/A   Scattered Clouds
1:15 PM 92.7 °F 101.7 °F 73.2 °F 53% 30.01 in 10.0 mi ESE 9.2 mph - N/A   Scattered Clouds
1:35 PM 93.9 °F 103.4 °F 73.6 °F 51% 30.00 in 10.0 mi East 6.9 mph - N/A   Scattered Clouds
1:55 PM 92.3 °F 100.9 °F 72.9 °F 53% 29.99 in 10.0 mi East 8.1 mph - N/A   Scattered Clouds
2:15 PM 94.3 °F 102.9 °F 72.7 °F 49% 29.98 in 10.0 mi East 9.2 mph - N/A   Clear
2:35 PM 95.2 °F 103.6 °F 72.3 °F 47% 29.97 in 10.0 mi East 8.1 mph - N/A   Scattered Clouds
2:55 PM 94.3 °F 102.2 °F 72.0 °F 48% 29.96 in 10.0 mi East 8.1 mph - N/A   Clear
3:15 PM 94.6 °F 103.0 °F 72.3 °F 48% 29.95 in 10.0 mi East 9.2 mph - N/A   Scattered Clouds
3:35 PM 96.4 °F 105.0 °F 71.8 °F 45% 29.93 in 10.0 mi SE 6.9 mph - N/A   Clear
3:55 PM 95.4 °F 103.3 °F 71.8 °F 46% 29.93 in 10.0 mi ESE 4.6 mph - N/A   Scattered Clouds
4:15 PM 94.8 °F 102.8 °F 71.8 °F 47% 29.93 in 10.0 mi SE 5.8 mph - N/A   Scattered Clouds
4:35 PM 92.5 °F 102.6 °F 73.9 °F 55% 29.93 in 7.0 mi SE 4.6 mph - N/A Rain Rain
4:55 PM 89.6 °F 101.6 °F 76.3 °F 65% 29.93 in 10.0 mi WSW 5.8 mph - N/A   Scattered Clouds
5:15 PM 85.6 °F 94.2 °F 75.0 °F 70% 29.93 in 3.0 mi NW 5.8 mph 28.8 mph 0.03 in Rain Light Rain
5:35 PM 82.4 °F 91.5 °F 77.9 °F 86% 29.93 in 10.0 mi WNW 5.8 mph - 0.09 in Thunderstorm Scattered Clouds
5:55 PM 83.1 °F 93.6 °F 78.6 °F 86% 29.93 in 10.0 mi NW 4.6 mph - 0.09 in   Scattered Clouds
6:15 PM 84.7 °F 93.6 °F 75.7 °F 74% 29.96 in 10.0 mi SSE 11.5 mph 17.3 mph N/A Thunderstorm Mostly Cloudy
6:35 PM 82.0 °F 89.4 °F 75.9 °F 82% 29.96 in 2.0 mi North 6.9 mph - 0.02 in Rain Heavy Rain
6:55 PM 80.8 °F 87.1 °F 76.3 °F 86% 29.96 in 10.0 mi Calm Calm - 0.07 in Rain Light Rain
7:15 PM 81.5 °F 88.5 °F 76.1 °F 84% 29.97 in 10.0 mi East 5.8 mph - 0.03 in   Clear
7:35 PM 80.2 °F 86.0 °F 76.3 °F 88% 29.98 in 10.0 mi East 3.5 mph - 0.03 in   Scattered Clouds
7:55 PM 80.1 °F 85.5 °F 76.3 °F 88% 29.99 in 10.0 mi North 4.6 mph - 0.03 in   Light Drizzle
8:15 PM 79.0 °F - 75.6 °F 89% 29.98 in 10.0 mi Calm Calm - 0.01 in   Scattered Clouds
8:35 PM 79.0 °F - 76.1 °F 91% 29.99 in 10.0 mi Calm Calm - 0.01 in   Clear
8:55 PM 79.5 °F - 76.1 °F 89% 29.99 in 10.0 mi SE 3.5 mph - 0.01 in   Clear
9:15 PM 80.1 °F 85.5 °F 76.3 °F 88% 29.99 in 10.0 mi SSE 3.5 mph - N/A   Clear
9:35 PM 80.2 °F 86.0 °F 76.3 °F 88% 30.00 in 10.0 mi SSE 5.8 mph - N/A   Clear
9:55 PM 80.2 °F 86.0 °F 76.5 °F 88% 30.00 in 10.0 mi East 3.5 mph - N/A   Clear
10:15 PM 80.2 °F 86.0 °F 76.5 °F 88% 30.01 in 10.0 mi Calm Calm - N/A   Clear
10:35 PM 79.7 °F - 76.5 °F 90% 30.01 in 10.0 mi Calm Calm - N/A   Clear
10:55 PM 79.7 °F - 76.5 °F 90% 30.02 in 10.0 mi Calm Calm - N/A   Clear
11:15 PM 79.0 °F - 76.3 °F 91% 30.01 in 10.0 mi East 3.5 mph - N/A   Clear
11:35 PM 79.3 °F - 76.3 °F 90% 30.01 in 10.0 mi Calm Calm - N/A   Clear
11:55 PM 79.7 °F - 76.3 °F 89% 30.02 in 10.0 mi Calm Calm - N/A   Clear